Location: Newark
(54.8972°N, 99.8189°W)
Time: 19:59:06
(UTC+00:00)

A-11 Canister half - Visible Passes

Search period start: 20 November 2019 00:00
Search period end: 30 November 2019 00:00
Orbit: 1527 x 1682 km, 47.3° (Epoch: 19 November)

Date Brightness Start Highest point End Pass type
(mag) Time Alt. Az. Time Alt. Az. Time Alt. Az.
20 Nov 10.8 00:43:08 10° W 00:50:36 26° SW 00:57:54 10° S visible
21 Nov 10.8 00:21:26 10° W 00:29:04 27° SW 00:36:31 10° SSE visible
21 Nov 10.8 23:59:44 10° W 00:07:31 29° SW 00:15:07 10° SSE visible
22 Nov 10.9 23:38:02 10° W 23:45:58 30° SW 23:53:42 10° SSE visible
23 Nov 10.9 23:16:21 10° W 23:24:25 31° SW 23:32:17 10° SSE visible
24 Nov 10.9 22:54:40 10° W 23:02:52 32° SW 23:10:51 10° SSE visible
25 Nov 11.8 01:04:12 10° WSW 01:05:13 10° WSW 01:06:14 10° SW visible
26 Nov 11.7 00:41:21 10° WSW 00:43:43 11° WSW 00:46:05 10° SW visible
27 Nov 11.7 00:19:04 10° WSW 00:22:14 12° SW 00:25:22 10° SW visible
27 Nov 11.8 23:56:56 10° WSW 00:00:44 13° SW 00:04:29 10° SSW visible
28 Nov 11.8 23:34:55 10° W 23:39:13 14° SW 23:43:29 10° SSW visible
29 Nov 11.8 23:12:57 10° W 23:17:43 15° SW 23:22:24 10° SSW visible
